This demonstration page uses our WeatherBlox Daily Observations layout. Learn more.

Left ArrowRight Arrow

Hourly Observations for December 2, 2022

Temp ( °F °C ) Dew Point ( °F °C ) Humidity (%) Winds ( mph kmh ) Pressure ( in mb ) Visibility ( mi km ) Precip ( " mm )
12:52 am 00:52 Mostly Cloudy 36 2.2 21 -6.1 54 54 S 16 26 29.79 1009 10 16 0.00 0.00
1:52 am 01:52 Mostly Cloudy 34 1.1 21 -6.1 59 59 SSE 13 20 29.75 1008 10 16 0.00 0.00
2:52 am 02:52 Mostly Cloudy 36 2.2 22 -5.6 56 56 S 15 24 29.73 1007 10 16 0.00 0.00
3:52 am 03:52 Mostly Cloudy 36 2.2 22 -5.6 56 56 S 15 24 29.70 1006 10 16 0.00 0.00
4:52 am 04:52 Partly Cloudy 35 1.7 22 -5.6 58 58 SSE 8 13 29.70 1006 10 16 0.00 0.00
5:52 am 05:52 Mostly Cloudy 36 2.2 24 -4.4 62 62 SSE 14 22 29.65 1004 10 16 0.00 0.00
6:52 am 06:52 Mostly Cloudy 35 1.7 25 -3.9 66 66 SSE 12 19 29.65 1004 10 16 0.00 0.00
7:52 am 07:52 Mostly Cloudy 37 2.8 28 -2.2 70 70 SSE 12 19 29.63 1004 10 16 0.00 0.00
8:52 am 08:52 Mostly Cloudy 39 3.9 30 -1.1 70 70 S 14 22 29.61 1003 10 16 0.00 0.00
9:52 am 09:52 Mostly Cloudy 44 6.7 33 0.6 65 65 S 17 28 29.59 1002 10 16 0.00 0.00
10:52 am 10:52 Mostly Cloudy 47 8.3 35 1.7 63 63 S 10 17 29.58 1002 10 16 0.00 0.00
11:52 am 11:52 Cloudy 51 10.6 37 2.8 58 58 SSW 15 24 29.52 1000 10 16 0.00 0.00
12:52 pm 12:52 Mostly Cloudy 55 12.8 37 2.8 51 51 SW 14 22 29.50 999 10 16 0.00 0.00
1:52 pm 13:52 Partly Cloudy 56 13.3 36 2.2 47 47 WNW 15 24 29.56 1001 10 16 0.00 0.00
2:02 pm 14:02 Partly Cloudy 55 12.8 36 2.2 48 48 NW 15 24 29.55 1001 10 16 0.00 0.00
2:52 pm 14:52 Partly Cloudy 53 11.7 33 0.6 46 46 NNW 16 26 29.59 1002 10 16 0.00 0.00
3:52 pm 15:52 Partly Cloudy 48 8.9 31 -0.6 51 51 NNW 25 41 29.67 1005 10 16 0.00 0.00
4:52 pm 16:52 Mostly Sunny 35 1.7 24 -4.4 64 64 NNW 30 48 29.81 1010 10 16 0.00 0.00
5:52 pm 17:52 Mostly Clear 28 -2.2 18 -7.8 65 65 NW 24 39 29.94 1014 10 16 0.00 0.00
6:52 pm 18:52 Mostly Cloudy 26 -3.3 15 -9.4 63 63 NW 35 56 30.02 1017 10 16 0.00 0.00
7:52 pm 19:52 Cloudy 24 -4.4 14 -10 65 65 NNW 33 54 30.09 1019 10 16 0.00 0.00
8:29 pm 20:29 Cloudy 24 -4.4 15 -9.4 68 68 NW 29 46 30.18 1022 10 16 0.00 0.00
8:52 pm 20:52 Mostly Cloudy 23 -5 12 -11.1 62 62 NNW 29 46 30.16 1021 10 16 0.00 0.00
9:52 pm 21:52 Mostly Clear 21 -6.1 10 -12.2 62 62 NW 23 37 30.22 1023 10 16 0.00 0.00
10:52 pm 22:52 Mostly Clear 19 -7.2 9 -12.8 64 64 NW 18 30 30.32 1027 10 16 0.00 0.00
11:52 pm 23:52 Mostly Clear 18 -7.8 9 -12.8 67 67 NW 16 26 30.35 1028 10 16 0.00 0.00

Powered by AerisWeather